VHMFA URSS-UGKO

Flight info

Callsign VHMFA
Flight time 1h 22m
Altitude 7000
Route TABAN/N0140F070 DCT MAQQO
Aircraft C182/L-SDGRY/S

Departure

Time 2026-04-18 05:28
Airport Sochi International Airport (URSS)

Arrival

Time 2026-04-18 06:51
Airport David the Builder Kutaisi International Airport (UGKO)
Time Latitude Longitude Altitude Speed Heading
2026-04-18 05:13 43.44193 39.94271 62 ft 0 kts 154°
2026-04-18 05:21 43.44207 39.94286 57 ft 6 kts
2026-04-18 05:21 43.44265 39.94312 61 ft 11 kts 31°
2026-04-18 05:22 43.44304 39.94397 59 ft 11 kts 70°
2026-04-18 05:22 43.44336 39.94488 63 ft 11 kts 61°
2026-04-18 05:22 43.44370 39.94591 62 ft 12 kts 69°
2026-04-18 05:22 43.44405 39.94692 66 ft 12 kts 62°
2026-04-18 05:23 43.44439 39.94796 64 ft 12 kts 66°
2026-04-18 05:23 43.44476 39.94901 68 ft 12 kts 63°
2026-04-18 05:23 43.44514 39.95008 68 ft 13 kts 55°
2026-04-18 05:23 43.44594 39.95073 69 ft 14 kts 27°
2026-04-18 05:24 43.44642 39.95157 70 ft 8 kts 67°
2026-04-18 05:24 43.44646 39.95168 70 ft 0 kts 62°
2026-04-18 05:26 43.44647 39.95172 70 ft 1 kts 63°
2026-04-18 05:27 43.44654 39.95190 68 ft 7 kts 66°
2026-04-18 05:27 43.44642 39.95292 68 ft 14 kts 134°
2026-04-18 05:27 43.44618 39.95347 71 ft 12 kts 36°
2026-04-18 05:27 43.44873 39.95544 72 ft 70 kts 29°
2026-04-18 05:28 43.45376 39.95899 266 ft 88 kts 28°
2026-04-18 05:28 43.45941 39.96283 575 ft 90 kts 27°
2026-04-18 05:28 43.46515 39.96648 907 ft 88 kts 15°
2026-04-18 05:28 43.47091 39.96463 1157 ft 93 kts 315°
2026-04-18 05:29 43.47459 39.95710 1383 ft 94 kts 298°
2026-04-18 05:29 43.47523 39.94835 1621 ft 96 kts 247°
2026-04-18 05:29 43.47034 39.94234 1857 ft 95 kts 209°
2026-04-18 05:29 43.46447 39.93796 2092 ft 97 kts 207°
2026-04-18 05:30 43.45864 39.93391 2385 ft 92 kts 204°
2026-04-18 05:30 43.45241 39.93064 2590 ft 97 kts 194°
2026-04-18 05:30 43.44603 39.92849 2849 ft 96 kts 191°
2026-04-18 05:30 43.43932 39.92613 3051 ft 99 kts 189°
2026-04-18 05:31 43.43326 39.92818 3296 ft 91 kts 130°
2026-04-18 05:31 43.42914 39.93446 3557 ft 87 kts 137°
2026-04-18 05:31 43.42548 39.93639 3727 ft 86 kts 169°
2026-04-18 05:31 43.41964 39.93778 3963 ft 86 kts 166°
2026-04-18 05:32 43.41163 39.93971 4268 ft 89 kts 166°
2026-04-18 05:32 43.40756 39.94065 4432 ft 90 kts 166°
2026-04-18 05:32 43.40131 39.94203 4665 ft 91 kts 166°
2026-04-18 05:32 43.39501 39.94335 4895 ft 92 kts 166°
2026-04-18 05:33 43.38857 39.94215 5121 ft 95 kts 184°
2026-04-18 05:33 43.38207 39.94028 5352 ft 96 kts 185°
2026-04-18 05:33 43.37668 39.93422 5586 ft 105 kts 220°
2026-04-18 05:33 43.37204 39.92657 5839 ft 104 kts 219°
2026-04-18 05:34 43.36753 39.91888 6096 ft 103 kts 219°
2026-04-18 05:34 43.36315 39.91114 6336 ft 102 kts 219°
2026-04-18 05:34 43.35883 39.90353 6569 ft 100 kts 219°
2026-04-18 05:34 43.35462 39.89603 6803 ft 98 kts 219°
2026-04-18 05:35 43.35048 39.88863 6978 ft 102 kts 219°
2026-04-18 05:35 43.34565 39.88044 7000 ft 118 kts 219°
2026-04-18 05:35 43.34015 39.87155 6998 ft 128 kts 219°
2026-04-18 05:35 43.33419 39.86205 6996 ft 133 kts 219°
2026-04-18 05:36 43.32810 39.85240 6996 ft 134 kts 219°
2026-04-18 05:36 43.32194 39.84264 6995 ft 135 kts 219°
2026-04-18 05:36 43.31602 39.83252 6993 ft 139 kts 229°
2026-04-18 05:36 43.31062 39.82148 6993 ft 136 kts 216°
2026-04-18 05:37 43.30324 39.81349 6994 ft 136 kts 207°
2026-04-18 05:37 43.29552 39.80597 6990 ft 135 kts 206°
2026-04-18 05:37 43.28780 39.79863 6991 ft 136 kts 206°
2026-04-18 05:37 43.27998 39.79124 6993 ft 138 kts 206°
2026-04-18 05:38 43.27208 39.78377 6989 ft 138 kts 206°
2026-04-18 05:38 43.26420 39.77633 6988 ft 137 kts 206°
2026-04-18 05:38 43.25636 39.76893 6987 ft 136 kts 206°
2026-04-18 05:38 43.24852 39.76155 6985 ft 137 kts 206°
2026-04-18 05:39 43.24062 39.75410 6974 ft 138 kts 205°
2026-04-18 05:39 43.23270 39.74664 6974 ft 138 kts 205°
2026-04-18 05:39 43.22479 39.73919 6977 ft 138 kts 205°
2026-04-18 05:39 43.21688 39.73174 6978 ft 138 kts 205°
2026-04-18 05:40 43.20900 39.72433 6978 ft 139 kts 205°
2026-04-18 05:40 43.20098 39.71679 6980 ft 140 kts 205°
2026-04-18 05:40 43.19295 39.70922 6981 ft 140 kts 205°
2026-04-18 05:40 43.18490 39.70166 6975 ft 140 kts 205°
2026-04-18 05:41 43.17688 39.69411 6987 ft 140 kts 206°
2026-04-18 05:41 43.16888 39.68659 6983 ft 139 kts 205°
2026-04-18 05:41 43.16088 39.67908 6984 ft 139 kts 205°
2026-04-18 05:41 43.15292 39.67160 6981 ft 139 kts 205°
2026-04-18 05:42 43.14498 39.66415 6975 ft 138 kts 205°
2026-04-18 05:42 43.13706 39.65671 6968 ft 138 kts 205°
2026-04-18 05:42 43.12915 39.64930 6974 ft 138 kts 205°
2026-04-18 05:42 43.12127 39.64191 6972 ft 137 kts 205°
2026-04-18 05:43 43.11343 39.63455 6967 ft 136 kts 205°
2026-04-18 05:43 43.10567 39.62727 6971 ft 135 kts 205°
2026-04-18 05:43 43.09783 39.62045 6967 ft 131 kts 197°
2026-04-18 05:43 43.08931 39.61726 6962 ft 125 kts 180°
2026-04-18 05:44 43.08076 39.61782 6968 ft 122 kts 165°
2026-04-18 05:44 43.07287 39.62184 6969 ft 122 kts 150°
2026-04-18 05:44 43.06622 39.62897 6966 ft 123 kts 136°
2026-04-18 05:44 43.06126 39.63857 6964 ft 124 kts 126°
2026-04-18 05:45 43.05666 39.64854 6968 ft 124 kts 127°
2026-04-18 05:45 43.05204 39.65848 6969 ft 124 kts 127°
2026-04-18 05:45 43.04741 39.66846 6972 ft 125 kts 127°
2026-04-18 05:45 43.04274 39.67853 6975 ft 126 kts 127°
2026-04-18 05:46 43.03800 39.68876 6979 ft 128 kts 127°
2026-04-18 05:46 43.03327 39.69897 6983 ft 130 kts 127°
2026-04-18 05:46 43.02842 39.70942 6979 ft 130 kts 127°
2026-04-18 05:46 43.02356 39.71989 6973 ft 131 kts 127°
2026-04-18 05:47 43.01869 39.73038 6979 ft 131 kts 127°
2026-04-18 05:47 43.01381 39.74089 6975 ft 131 kts 127°
2026-04-18 05:47 43.00893 39.75140 6979 ft 131 kts 127°
2026-04-18 05:47 43.00407 39.76187 6978 ft 130 kts 127°
2026-04-18 05:48 42.99923 39.77229 6971 ft 130 kts 127°
2026-04-18 05:48 42.99442 39.78263 6975 ft 128 kts 127°
2026-04-18 05:48 42.98967 39.79285 6972 ft 127 kts 127°
2026-04-18 05:48 42.98497 39.80295 6961 ft 126 kts 127°
2026-04-18 05:49 42.98027 39.81304 6962 ft 126 kts 127°
2026-04-18 05:49 42.97553 39.82320 6967 ft 128 kts 127°
2026-04-18 05:49 42.97075 39.83347 6966 ft 129 kts 127°
2026-04-18 05:49 42.96592 39.84383 6967 ft 130 kts 127°
2026-04-18 05:50 42.96107 39.85424 6972 ft 130 kts 127°
2026-04-18 05:50 42.95622 39.86465 6977 ft 130 kts 127°
2026-04-18 05:50 42.95137 39.87505 6969 ft 130 kts 127°
2026-04-18 05:50 42.94655 39.88539 6968 ft 129 kts 127°
2026-04-18 05:51 42.94176 39.89564 6965 ft 128 kts 127°
2026-04-18 05:51 42.93701 39.90581 6967 ft 127 kts 127°
2026-04-18 05:51 42.93228 39.91594 6964 ft 126 kts 127°
2026-04-18 05:51 42.92756 39.92604 6962 ft 126 kts 127°
2026-04-18 05:52 42.92286 39.93611 6964 ft 125 kts 128°
2026-04-18 05:52 42.91822 39.94602 6963 ft 126 kts 128°
2026-04-18 05:52 42.91352 39.95607 6962 ft 126 kts 128°
2026-04-18 05:52 42.90882 39.96612 6962 ft 126 kts 128°
2026-04-18 05:53 42.90410 39.97619 6966 ft 126 kts 128°
2026-04-18 05:53 42.89939 39.98626 6970 ft 126 kts 128°
2026-04-18 05:53 42.89467 39.99633 6968 ft 126 kts 128°
2026-04-18 05:53 42.88995 40.00641 6965 ft 126 kts 128°
2026-04-18 05:54 42.88521 40.01653 6974 ft 127 kts 128°
2026-04-18 05:54 42.88045 40.02666 6975 ft 128 kts 128°
2026-04-18 05:54 42.87566 40.03688 6976 ft 128 kts 127°
2026-04-18 05:54 42.87086 40.04711 6973 ft 128 kts 127°
2026-04-18 05:55 42.86608 40.05731 6958 ft 127 kts 128°
2026-04-18 05:55 42.86129 40.06750 6963 ft 128 kts 128°
2026-04-18 05:55 42.85650 40.07771 6962 ft 128 kts 128°
2026-04-18 05:55 42.85170 40.08791 6964 ft 128 kts 128°
2026-04-18 05:56 42.84690 40.09813 6964 ft 128 kts 128°
2026-04-18 05:56 42.84209 40.10837 6963 ft 128 kts 128°
2026-04-18 05:56 42.83726 40.11862 6964 ft 129 kts 128°
2026-04-18 05:56 42.83242 40.12891 6956 ft 129 kts 128°
2026-04-18 05:57 42.82274 40.14949 6961 ft 129 kts 128°
2026-04-18 05:57 42.81789 40.15978 6959 ft 129 kts 128°
2026-04-18 05:57 42.81306 40.17004 6961 ft 129 kts 128°
2026-04-18 05:58 42.80830 40.18014 6966 ft 128 kts 128°
2026-04-18 05:58 42.80348 40.19035 6966 ft 128 kts 128°
2026-04-18 05:58 42.79868 40.20055 6965 ft 128 kts 128°
2026-04-18 05:58 42.79386 40.21075 6966 ft 129 kts 128°
2026-04-18 05:59 42.78899 40.22106 6970 ft 130 kts 128°
2026-04-18 05:59 42.78406 40.23150 6971 ft 132 kts 128°
2026-04-18 05:59 42.77909 40.24203 6974 ft 132 kts 128°
2026-04-18 05:59 42.77410 40.25258 6976 ft 133 kts 128°
2026-04-18 06:00 42.76911 40.26317 6971 ft 132 kts 128°
2026-04-18 06:00 42.76417 40.27366 6972 ft 131 kts 128°
2026-04-18 06:00 42.75924 40.28405 6971 ft 130 kts 128°
2026-04-18 06:00 42.75434 40.29441 6973 ft 130 kts 128°
2026-04-18 06:01 42.74945 40.30474 6972 ft 130 kts 128°
2026-04-18 06:01 42.74455 40.31508 6958 ft 130 kts 128°
2026-04-18 06:01 42.73962 40.32547 6956 ft 131 kts 127°
2026-04-18 06:01 42.73466 40.33595 6959 ft 132 kts 127°
2026-04-18 06:02 42.72967 40.34648 6956 ft 132 kts 128°
2026-04-18 06:02 42.72470 40.35697 6958 ft 132 kts 128°
2026-04-18 06:02 42.71974 40.36742 6954 ft 131 kts 128°
2026-04-18 06:02 42.71479 40.37786 6956 ft 131 kts 128°
2026-04-18 06:03 42.70983 40.38830 6951 ft 132 kts 128°
2026-04-18 06:03 42.70487 40.39876 6954 ft 132 kts 128°
2026-04-18 06:03 42.69990 40.40921 6952 ft 132 kts 128°
2026-04-18 06:03 42.69493 40.41968 6955 ft 132 kts 128°
2026-04-18 06:04 42.68997 40.43013 6956 ft 132 kts 128°
2026-04-18 06:04 42.68506 40.44044 6957 ft 132 kts 128°
2026-04-18 06:04 42.68006 40.45096 6958 ft 132 kts 128°
2026-04-18 06:04 42.67506 40.46146 6957 ft 132 kts 128°
2026-04-18 06:05 42.67009 40.47192 6951 ft 132 kts 128°
2026-04-18 06:05 42.66512 40.48236 6951 ft 131 kts 128°
2026-04-18 06:05 42.66014 40.49280 6952 ft 131 kts 128°
2026-04-18 06:05 42.65518 40.50323 6951 ft 131 kts 128°
2026-04-18 06:06 42.65021 40.51365 6951 ft 131 kts 128°
2026-04-18 06:06 42.64523 40.52408 6949 ft 132 kts 128°
2026-04-18 06:06 42.64026 40.53452 6950 ft 131 kts 128°
2026-04-18 06:06 42.63529 40.54493 6952 ft 131 kts 128°
2026-04-18 06:07 42.63033 40.55534 6952 ft 131 kts 128°
2026-04-18 06:07 42.62536 40.56573 6954 ft 131 kts 128°
2026-04-18 06:07 42.62039 40.57613 6946 ft 132 kts 127°
2026-04-18 06:07 42.61537 40.58663 6946 ft 133 kts 127°
2026-04-18 06:08 42.61031 40.59722 6948 ft 134 kts 127°
2026-04-18 06:08 42.60525 40.60782 6949 ft 134 kts 127°
2026-04-18 06:08 42.60019 40.61840 6950 ft 134 kts 127°
2026-04-18 06:08 42.59512 40.62899 6950 ft 134 kts 127°
2026-04-18 06:09 42.59005 40.63959 6952 ft 134 kts 127°
2026-04-18 06:09 42.58498 40.65017 6952 ft 134 kts 127°
2026-04-18 06:09 42.57990 40.66078 6953 ft 134 kts 127°
2026-04-18 06:09 42.57481 40.67141 6949 ft 134 kts 127°
2026-04-18 06:10 42.56972 40.68203 6947 ft 134 kts 127°
2026-04-18 06:10 42.56464 40.69262 6947 ft 134 kts 128°
2026-04-18 06:10 42.55957 40.70319 6947 ft 133 kts 127°
2026-04-18 06:10 42.55451 40.71373 6946 ft 133 kts 127°
2026-04-18 06:11 42.54945 40.72427 6948 ft 133 kts 128°
2026-04-18 06:11 42.54440 40.73480 6949 ft 133 kts 128°
2026-04-18 06:11 42.53933 40.74534 6948 ft 134 kts 127°
2026-04-18 06:11 42.53434 40.75574 6949 ft 133 kts 128°
2026-04-18 06:12 42.52926 40.76631 6949 ft 134 kts 127°
2026-04-18 06:12 42.52419 40.77685 6946 ft 133 kts 128°
2026-04-18 06:12 42.51913 40.78737 6947 ft 133 kts 128°
2026-04-18 06:12 42.51405 40.79793 6944 ft 133 kts 128°
2026-04-18 06:13 42.50899 40.80845 6945 ft 133 kts 127°
2026-04-18 06:13 42.50390 40.81901 6944 ft 134 kts 127°
2026-04-18 06:13 42.49885 40.82952 6948 ft 132 kts 130°
2026-04-18 06:13 42.49386 40.83990 6945 ft 132 kts 128°
2026-04-18 06:14 42.48886 40.85025 6947 ft 131 kts 128°
2026-04-18 06:14 42.48390 40.86053 6949 ft 130 kts 130°
2026-04-18 06:14 42.47892 40.87083 6945 ft 132 kts 128°
2026-04-18 06:14 42.47392 40.88120 6943 ft 131 kts 129°
2026-04-18 06:15 42.46891 40.89157 6943 ft 133 kts 128°
2026-04-18 06:15 42.46382 40.90212 6947 ft 134 kts 129°
2026-04-18 06:15 42.45876 40.91259 6951 ft 132 kts 127°
2026-04-18 06:15 42.45369 40.92312 6953 ft 133 kts 130°
2026-04-18 06:16 42.44868 40.93349 6952 ft 131 kts 130°
2026-04-18 06:16 42.44365 40.94385 6949 ft 132 kts 128°
2026-04-18 06:16 42.43860 40.95431 6950 ft 132 kts 129°
2026-04-18 06:16 42.43356 40.96475 6948 ft 134 kts 128°
2026-04-18 06:17 42.42846 40.97525 6942 ft 134 kts 127°
2026-04-18 06:17 42.42337 40.98577 6947 ft 132 kts 130°
2026-04-18 06:17 42.41833 40.99617 6946 ft 132 kts 130°
2026-04-18 06:17 42.41334 41.00649 6947 ft 130 kts 131°
2026-04-18 06:18 42.40841 41.01667 6946 ft 130 kts 128°
2026-04-18 06:18 42.40342 41.02693 6943 ft 131 kts 128°
2026-04-18 06:18 42.39843 41.03722 6945 ft 131 kts 128°
2026-04-18 06:18 42.39336 41.04765 6943 ft 134 kts 128°
2026-04-18 06:19 42.38826 41.05818 6948 ft 134 kts 130°
2026-04-18 06:19 42.38320 41.06857 6950 ft 132 kts 128°
2026-04-18 06:19 42.37815 41.07898 6932 ft 132 kts 130°
2026-04-18 06:19 42.37316 41.08927 6931 ft 133 kts 130°
2026-04-18 06:20 42.36808 41.09972 6930 ft 133 kts 128°
2026-04-18 06:20 42.36300 41.11019 6931 ft 133 kts 127°
2026-04-18 06:20 42.35791 41.12069 6930 ft 135 kts 127°
2026-04-18 06:20 42.35271 41.13133 6930 ft 136 kts 129°
2026-04-18 06:21 42.34755 41.14194 6935 ft 134 kts 128°
2026-04-18 06:21 42.34241 41.15252 6936 ft 135 kts 130°
2026-04-18 06:21 42.33731 41.16298 6938 ft 133 kts 130°
2026-04-18 06:21 42.33224 41.17340 6935 ft 133 kts 129°
2026-04-18 06:22 42.32712 41.18384 6933 ft 133 kts 130°
2026-04-18 06:22 42.32202 41.19429 6930 ft 134 kts 129°
2026-04-18 06:22 42.31689 41.20485 6931 ft 135 kts 128°
2026-04-18 06:22 42.31170 41.21548 6933 ft 135 kts 128°
2026-04-18 06:23 42.30654 41.22601 6929 ft 135 kts 130°
2026-04-18 06:23 42.30142 41.23651 6931 ft 133 kts 130°
2026-04-18 06:23 42.29809 41.24337 6933 ft 131 kts 131°
2026-04-18 06:23 42.29133 41.25717 6930 ft 133 kts 129°
2026-04-18 06:24 42.28798 41.26405 6933 ft 133 kts 128°
2026-04-18 06:24 42.28113 41.27804 6924 ft 135 kts 127°
2026-04-18 06:24 42.27770 41.28505 6928 ft 135 kts 128°
2026-04-18 06:24 42.27253 41.29559 6931 ft 134 kts 129°
2026-04-18 06:25 42.26742 41.30612 6931 ft 134 kts 130°
2026-04-18 06:25 42.26232 41.31651 6930 ft 133 kts 128°
2026-04-18 06:25 42.25725 41.32687 6932 ft 132 kts 128°
2026-04-18 06:25 42.25215 41.33725 6929 ft 133 kts 129°
2026-04-18 06:26 42.24705 41.34762 6930 ft 133 kts 127°
2026-04-18 06:26 42.24190 41.35815 6928 ft 136 kts 127°
2026-04-18 06:26 42.23669 41.36879 6930 ft 135 kts 129°
2026-04-18 06:26 42.23155 41.37928 6927 ft 134 kts 130°
2026-04-18 06:27 42.22644 41.38973 6931 ft 132 kts 130°
2026-04-18 06:27 42.22138 41.40002 6927 ft 132 kts 129°
2026-04-18 06:27 42.21631 41.41035 6925 ft 133 kts 128°
2026-04-18 06:27 42.21126 41.42059 6928 ft 132 kts 127°
2026-04-18 06:28 42.20615 41.43099 6933 ft 133 kts 128°
2026-04-18 06:28 42.20099 41.44148 6930 ft 135 kts 127°
2026-04-18 06:28 42.19586 41.45195 6932 ft 133 kts 128°
2026-04-18 06:28 42.19074 41.46235 6931 ft 133 kts 129°
2026-04-18 06:29 42.18569 41.47261 6932 ft 130 kts 129°
2026-04-18 06:29 42.18066 41.48279 6932 ft 131 kts 128°
2026-04-18 06:29 42.17558 41.49311 6932 ft 132 kts 129°
2026-04-18 06:29 42.17050 41.50344 6930 ft 133 kts 127°
2026-04-18 06:30 42.16533 41.51393 6930 ft 135 kts 128°
2026-04-18 06:30 42.16018 41.52440 6933 ft 133 kts 127°
2026-04-18 06:30 42.15508 41.53472 6930 ft 133 kts 127°
2026-04-18 06:30 42.15000 41.54503 6933 ft 131 kts 129°
2026-04-18 06:31 42.14496 41.55524 6933 ft 130 kts 129°
2026-04-18 06:31 42.13989 41.56549 6925 ft 134 kts 128°
2026-04-18 06:31 42.13471 41.57595 6917 ft 135 kts 127°
2026-04-18 06:31 42.13029 41.58490 6917 ft 136 kts 126°
2026-04-18 06:32 42.12501 41.59561 6919 ft 137 kts 127°
2026-04-18 06:32 42.11975 41.60626 6922 ft 136 kts 127°
2026-04-18 06:32 42.11447 41.61693 6921 ft 137 kts 128°
2026-04-18 06:32 42.10924 41.62751 6923 ft 135 kts 127°
2026-04-18 06:33 42.10400 41.63811 6919 ft 136 kts 126°
2026-04-18 06:33 42.09872 41.64877 6919 ft 136 kts 127°
2026-04-18 06:33 42.09353 41.65925 6918 ft 137 kts 126°
2026-04-18 06:33 42.08825 41.66991 6920 ft 137 kts 126°
2026-04-18 06:34 42.08297 41.68058 6926 ft 136 kts 127°
2026-04-18 06:34 42.07814 41.69149 6921 ft 138 kts 115°
2026-04-18 06:34 42.07673 41.70440 6919 ft 143 kts 93°
2026-04-18 06:34 42.07843 41.71771 6921 ft 146 kts 84°
2026-04-18 06:35 42.08022 41.73111 6917 ft 145 kts 85°
2026-04-18 06:35 42.08195 41.74453 6917 ft 145 kts 84°
2026-04-18 06:35 42.08367 41.75794 6916 ft 145 kts 85°
2026-04-18 06:35 42.08542 41.77129 6917 ft 144 kts 88°
2026-04-18 06:36 42.08714 41.78461 6917 ft 144 kts 85°
2026-04-18 06:36 42.08886 41.79788 6919 ft 144 kts 88°
2026-04-18 06:36 42.09058 41.81121 6917 ft 145 kts 84°
2026-04-18 06:36 42.09232 41.82461 6925 ft 147 kts 85°
2026-04-18 06:37 42.09409 41.83814 6927 ft 146 kts 87°
2026-04-18 06:37 42.09583 41.85166 6925 ft 146 kts 86°
2026-04-18 06:37 42.09757 41.86514 6924 ft 146 kts 86°
2026-04-18 06:37 42.09929 41.87861 6928 ft 146 kts 85°
2026-04-18 06:38 42.10106 41.89210 6932 ft 146 kts 86°
2026-04-18 06:38 42.10276 41.90560 6932 ft 146 kts 88°
2026-04-18 06:38 42.10450 41.91913 6933 ft 147 kts 85°
2026-04-18 06:38 42.10624 41.93265 6932 ft 146 kts 86°
2026-04-18 06:39 42.10795 41.94610 6931 ft 146 kts 85°
2026-04-18 06:39 42.10971 41.95965 6928 ft 147 kts 86°
2026-04-18 06:39 42.11142 41.97315 6932 ft 146 kts 85°
2026-04-18 06:39 42.11316 41.98667 6927 ft 147 kts 85°
2026-04-18 06:40 42.11495 42.00035 6927 ft 149 kts 87°
2026-04-18 06:40 42.11668 42.01392 6927 ft 150 kts 83°
2026-04-18 06:40 42.11845 42.02787 6925 ft 148 kts 87°
2026-04-18 06:40 42.12017 42.04158 6927 ft 149 kts 88°
2026-04-18 06:41 42.12187 42.05513 6908 ft 150 kts 85°
2026-04-18 06:41 42.12368 42.06925 6796 ft 154 kts 86°
2026-04-18 06:41 42.12550 42.08347 6670 ft 154 kts 84°
2026-04-18 06:41 42.12731 42.09768 6552 ft 154 kts 85°
2026-04-18 06:42 42.12911 42.11194 6446 ft 154 kts 83°
2026-04-18 06:42 42.13090 42.12617 6326 ft 153 kts 85°
2026-04-18 06:42 42.13267 42.14027 6209 ft 152 kts 85°
2026-04-18 06:42 42.13447 42.15430 6090 ft 152 kts 84°
2026-04-18 06:43 42.13625 42.16829 5966 ft 151 kts 86°
2026-04-18 06:43 42.13802 42.18229 5841 ft 152 kts 85°
2026-04-18 06:43 42.13978 42.19621 5724 ft 150 kts 86°
2026-04-18 06:43 42.14152 42.21010 5594 ft 150 kts 85°
2026-04-18 06:44 42.14325 42.22384 5461 ft 149 kts 84°
2026-04-18 06:44 42.14498 42.23767 5236 ft 149 kts 84°
2026-04-18 06:44 42.14672 42.25123 4997 ft 146 kts 84°
2026-04-18 06:44 42.14837 42.26448 4757 ft 142 kts 85°
2026-04-18 06:45 42.14998 42.27739 4508 ft 136 kts 85°
2026-04-18 06:45 42.15149 42.28967 4214 ft 131 kts 85°
2026-04-18 06:45 42.15298 42.30167 3913 ft 129 kts 84°
2026-04-18 06:45 42.15446 42.31316 3618 ft 121 kts 85°
2026-04-18 06:46 42.15591 42.32398 3320 ft 112 kts 81°
2026-04-18 06:46 42.15835 42.33348 3018 ft 103 kts 78°
2026-04-18 06:46 42.15925 42.34267 2710 ft 96 kts 88°
2026-04-18 06:46 42.15983 42.35147 2417 ft 93 kts 85°
2026-04-18 06:47 42.16061 42.35983 2109 ft 85 kts 85°
2026-04-18 06:47 42.16142 42.36746 1812 ft 80 kts 84°
2026-04-18 06:47 42.16273 42.37473 1502 ft 79 kts 79°
2026-04-18 06:47 42.16426 42.38169 1333 ft 79 kts 80°
2026-04-18 06:48 42.16568 42.38903 1207 ft 81 kts 79°
2026-04-18 06:48 42.16690 42.39660 1059 ft 85 kts 84°
2026-04-18 06:48 42.16756 42.40429 962 ft 82 kts 83°
2026-04-18 06:48 42.16851 42.41162 895 ft 79 kts 84°
2026-04-18 06:49 42.16916 42.41853 806 ft 71 kts 83°
2026-04-18 06:49 42.16983 42.42487 740 ft 65 kts 82°
2026-04-18 06:49 42.17005 42.43056 615 ft 58 kts 84°
2026-04-18 06:49 42.17105 42.43607 523 ft 60 kts 77°
2026-04-18 06:50 42.17211 42.44210 455 ft 69 kts 84°
2026-04-18 06:50 42.17265 42.44831 428 ft 66 kts 77°
2026-04-18 06:50 42.17337 42.45456 371 ft 71 kts 83°
2026-04-18 06:50 42.17404 42.46058 310 ft 57 kts 81°
2026-04-18 06:51 42.17459 42.46469 229 ft 40 kts 79°
2026-04-18 06:51 42.17504 42.46842 160 ft 40 kts 81°
2026-04-18 06:51 42.17540 42.47107 145 ft 14 kts 83°
2026-04-18 06:51 42.17556 42.47192 141 ft 10 kts 85°
2026-04-18 06:52 42.17555 42.47236 142 ft 3 kts 78°
2026-04-18 06:52 42.17573 42.47365 142 ft 20 kts 81°
2026-04-18 06:52 42.17649 42.47471 144 ft 17 kts 359°
2026-04-18 06:52 42.17778 42.47413 146 ft 21 kts 328°
2026-04-18 06:53 42.17906 42.47304 147 ft 21 kts 305°
2026-04-18 06:53 42.17909 42.47157 146 ft 22 kts 259°
2026-04-18 06:53 42.17954 42.46955 143 ft 27 kts 333°
2026-04-18 06:53 42.18108 42.46804 143 ft 28 kts 313°
2026-04-18 06:54 42.18147 42.46661 142 ft 9 kts 273°
2026-04-18 06:54 42.18148 42.46640 142 ft 0 kts 276°